Location: Aldenham
(51.6667°N, 0.3500°W)
Time: 17:57:46
(UTC+00:00)

Explorer 7 - Pass Details

Date: 18 February 2026
Orbit: 430 x 542 km, 50.2° (Epoch: 8 March)

Event Time Altitude Azimuth Distance (km) Brightness Sun altitude
Rises 14:49:05 0° 211° (SSW) 2,420 11.7 18.7°
Reaches altitude 10° 14:51:33 10° 194° (SSW) 1,570 10.5 18.4°
Maximum altitude 14:54:11 20° 145° (SE) 1,119 8.7 18.1°
Drops below altitude 10° 14:56:54 10° 97° (E) 1,620 8.9 17.9°
Sets 14:59:29 0° 80° (E) 2,525 9.7 17.6°
